Simultaneous Nadir Overpasses (SNOs) Predictions

Prediction of SNOs between NOAA-20 and AQUA Satellite Orbit:

Table of predicted SNOs for the next 14.0 days since TLE Epoch: 5/24/2025
Index Date (NOAA-20) Time (NOAA-20) Lat,Lon (NOAA-20) SZA (NOAA-20 ) Date (AQUA) Time (AQUA) Lat,Lon (AQUA) SZA (AQUA ) Distance(km) Time Diff (sec)
1 05/25/2025 02:28:43 -81.30,-104.07 114.29 05/25/2025 02:28:53 -81.30,-103.88 114.32 3.21 10
2 05/27/2025 11:59:40 -81.30, 113.19 114.69 05/27/2025 12:00:00 -81.30, 113.35 114.72 2.71 20
3 05/27/2025 12:50:23 81.29, -78.90 65.23 05/27/2025 12:49:18 81.29, -79.06 65.29 2.74 65
4 05/29/2025 21:30:36 -81.30, -29.18 115.10 05/29/2025 21:31:06 -81.30, -29.26 115.10 1.33 30
5 05/29/2025 22:21:20 81.29, 138.33 64.87 05/29/2025 22:20:24 81.29, 138.29 64.91 0.62 56
6 06/01/2025 07:01:32 -81.30,-171.98 115.41 06/01/2025 07:02:11 -81.29,-172.10 115.42 2.00 39
7 06/01/2025 07:52:16 81.30, -4.47 64.56 06/01/2025 07:51:29 81.29, -4.59 64.60 2.12 47
8 06/03/2025 16:32:29 -81.30, 45.19 115.68 06/03/2025 16:33:16 -81.29, 45.22 115.71 0.49 47
9 06/03/2025 17:23:13 81.30,-147.30 64.29 06/03/2025 17:22:34 81.29,-147.30 64.31 1.10 39
10 06/06/2025 02:03:25 -81.30, -97.27 115.97 06/06/2025 02:04:20 -81.30, -97.30 115.99 1.05 55



Historial Predications of SNOs between NOAA-20 and AQUA
